Find Starlink 37493

NORAD ID: 68910 Int'l Des: 2026-097 Owner: SPXS Country: US Constellation: starlink operational
LEOCIRCULARRETROGRADE

当前视图

正在加载3D地球...

About Starlink 37493

Starlink 37493 (NORAD 68910) is a starlink constellation satellite (v2 mini) launched Apr 30, 2026 by SPXS of US. It operates in LEO, CIRCULAR, RETROGRADE orbit with a mass of 575.00 kg.

关于 Starlink 37493

正在加载描述...

即将过境

Passes for default location (London). Set your location on the main map for personalized predictions.

高度历史

Loading altitude history...

两行轨道根数

1 68910U 26097R 26170.27110722 .00010180 00000-0 31722-3 0 9994
2 68910 97.2858 5.7251 0001750 93.6153 266.5290 15.33443444 7805
Epoch: Jun 19, 2026 • Age: 18 hours

当前状态

高度 467.8 km
速度 7.63 km/s
星下点 6.44°N, 88.27°W
发射日期 Apr 30, 2026
运行时间 0.1 years
类型 internet

技术详情

分类 Payload
质量 575.00 kg
干质量 530.00 kg
总质量 575.00 kg
长度 0.30 m
直径 4.10 m
跨度 29.00 m
形状 Box + pan
制造商 SPXS
平台类型 Starlink V2MO
阶段状态 In Orbit
所有者/国家 SPXS/US

Most Searched